UFO 10 (USA 146)

Last updated on Mon Oct 14 2024 00:02:37 GMT+0000 (Coordinated Universal Time)

1 25967U 99063A 24287.11592240 -.00000184 00000+0 00000+0 0 9995 2 25967 9.5735 30.1172 0006520 197.0339 173.8402 1.00268324 91213
UTC large
Height (km)
Speed (km/s)
/
Latitude / Longitude
Inclination (degrees)
Orbital Period (minutes)
Azimuth
Elevation
Range (km)
Doppler Factor

Next 0 passes for location: London (51.5072 / 0.1276)

Sorry there are no passes over London.